Current Version              Previous Version:    01  02  03  04  05  06  07  08  09  10  11  12  13  14  15  16  17  18  19  20  21  22  23  24  25  26  27  28  29  30  
   31  32  33  34  35  36  37  38  39  40  41  42  43  44  45  46  47  48  49  50  51  52  53  54  55  56  57  58  59  60  

[Printable]
664
ASUS44 KEWX 242210
RWRTX
SOUTH TEXAS REGIONAL WEATHER ROUNDUP
NATIONAL WEATHER SERVICE AUSTIN/SAN ANTONIO TX
500 PM CDT THU APR 24 2014

NOTE: "FAIR" INDICATED FEW OR NO CLOUDS BELOW 12,000 FEET WITH NO
SIGNIFICANT WEATHER AND/OR OBSTRUCTIONS TO VISIBILITY.

* - THESE STATIONS ARE NOT NWS OR FAA STATIONS...AND ARE NOT SUBJECT
    TO NWS AND FAA QUALITY CONTROL.

TXZ171-172-183>190-242300-
TEXAS HILL COUNTRY AND EDWARDS PLATEAU

CITY           SKY/WX    TMP DP  RH WIND       PRES   REMARKS
JUNCTION       CLOUDY    89  27  10 N17G23    29.87S
*LLANO         SUNNY     88  32  13 N7        29.88S
BURNET         SUNNY     90  25   9 N12G22    29.86R
*HORSESHOE BAY SUNNY     92  32  12 N16G23    29.82S
*KERRVILLE     SUNNY     92   4   3 N9G22     29.84S
*FREDERICKSBRG SUNNY     90  33  13 N12G21    29.85S
*ROCKSPRINGS   SUNNY     88  19   8 N10G16    29.91S
*BOERNE STAGE  SUNNY     91  32  12 NE6       29.82F
*CASTROVILLE   SUNNY     88  59  37 SE10      29.81F
HONDO          SUNNY     94  63  35 S10       29.80F HX  95
*UVALDE        SUNNY     96  51  22 S5        29.78F HX  93
DEL RIO        SUNNY     97  18   6 N10G20    29.80F HX  90
LAUGHLIN AFB   SUNNY     96  22   7 NW10      29.81F
CARRIZO SPRGS  SUNNY     91  59  33 NE3       29.77F HX  90
$$

TXZ173-191>194-202-209-217>225-228-242300-
CENTRAL AND SOUTH CENTRAL TEXAS

CITY           SKY/WX    TMP DP  RH WIND       PRES   REMARKS
GEORGETOWN     MOSUNNY   93  45  18 N14       29.79S HAZE
AUSTIN/BERGSTM MOSUNNY   86  65  49 E7        29.80F
AUSTIN/MABRY   SUNNY     85  65  51 VRB7      29.81F
*AUSTIN/EXEC   SUNNY     84  66  54 SE6       29.81F
*LAGO VISTA    SUNNY     93  32  11 N12G21    29.83S
SAN MARCOS     SUNNY     84  64  51 SE13      29.81F
NEW BRAUNFELS  SUNNY     87  63  44 E10       29.79F
RANDOLPH AFB   SUNNY     86  64  46 SE9       29.81F
PT SAN ANTONIO SUNNY     88  64  45 SE13G20   29.79F
SAN ANTONIO    MOSUNNY   89  63  41 SE13      29.80F HX  90
STINSON FIELD  SUNNY     89  64  43 SE10G23   29.78F HX  90
*PLEASANTON    SUNNY     88  62  42 CALM      29.80F
*LA GRANGE     MOSUNNY   85  70  59 SE5       29.80F
*GIDDINGS      SUNNY     84  65  52 SE5       29.85F
*GONZALES      SUNNY     85  69  58 S5        29.81S
$$

TXZ163>164-176>182-195>201-210>213-226-227-235-242300-
SOUTHEAST TEXAS

CITY           SKY/WX    TMP DP  RH WIND       PRES   REMARKS
COLLEGE STN    SUNNY     83  65  54 S8        29.81F
*BRYAN         MOSUNNY   82  68  62 S9        29.81F
*CALDWELL      SUNNY     82  64  54 CALM      29.84F
*CROCKETT      SUNNY    N/A N/A N/A S10       29.84F
*BRENHAM       SUNNY     82  67  60 S5        29.83F
HUNTSVILLE     MOSUNNY   81  67  62 VRB5      29.84F
CONROE         CLOUDY    80  66  62 SW5       29.84S
HOUSTON BUSH   CLOUDY    82  64  54 S7        29.83S
HOUSTON HOBBY  PTSUNNY   82  66  58 S12       29.83F
*HOUSTON SW AP PTSUNNY   82  65  56 S7G18     29.85F
PEARLAND       PTSUNNY   81  64  56 S8        29.86F
HOUSTON HOOKS  CLOUDY    81  67  62 S8        29.83F
ELLINGTON FLD  NOT AVBL
SUGAR LAND     PTSUNNY   83  67  58 S12       29.83F
*HOUSTON EXEC  CLOUDY    82  66  57 S12       29.84S
*CLEVELAND MUN CLOUDY    78  70  76 S7        29.85S
*WHARTON       MOSUNNY   81  67  62 S12       29.83F
$$

TXZ214>216-236>238-242300-
THE UPPER TEXAS COAST

CITY           SKY/WX    TMP DP  RH WIND       PRES   REMARKS
*ORANGE        PTSUNNY   76  67  74 S10G17    29.89F
PORT ARTHUR    PTSUNNY   77  67  71 S13       29.86F
GALVESTON      PTSUNNY   76  70  82 S12       29.87F
ANGLETON       PTSUNNY   78  67  68 S14       29.86S
*BAY CITY      CLOUDY    79  69  71 S10       29.85S
PALACIOS       MOSUNNY   77  69  76 S13       29.85S
$$

TXZ229>234-239>247-242300-
TEXAS COASTAL BEND AND RIO GRANDE PLAINS

CITY           SKY/WX    TMP DP  RH WIND       PRES   REMARKS
VICTORIA       PTSUNNY   82  69  64 S15       29.82F
*BEEVILLE      PTSUNNY   85  68  55 NE3       29.81S
ROCKPORT       PTSUNNY   79  70  74 SE15      29.82S
*PORT ARANSAS  CLOUDY    75  71  86 SE7       29.81F
*PORT LAVACA   CLOUDY    76  68  77 S8        29.84S
*INGLESIDE     CLOUDY    80  70  71 SE15      29.81F
CORPUS CHRISTI CLOUDY    83  69  62 SE14      29.80F
CORPUS NAS     CLOUDY    78  71  79 SE14      29.80F
*ROBSTOWN      PTSUNNY   84  69  61 SE13      29.81S
ALICE          CLOUDY    84  69  60 E13       29.79S
KINGSVILLE NAS PTSUNNY   84  71  65 E15       29.79F
COTULLA        SUNNY     92  58  31 E10       29.79F HX  91
*FAITH RANCH   SUNNY     93  55  27 CALM      29.79F HX  91
LAREDO         SUNNY     92  62  36 N15       29.81F HX  92
$$

TXZ248>255-242300-
DEEP SOUTH TEXAS

CITY           SKY/WX    TMP DP  RH WIND       PRES   REMARKS
BROWNSVILLE    PTSUNNY   84  71  65 SE15      29.77S
PORT ISABEL    NOT AVBL
*SOUTH PADRE   PTSUNNY   77  72  83 CALM      29.79S
HARLINGEN      PTSUNNY   88  69  53 SE15G21   29.75S HX  92
*HEBBRONVILLE  SUNNY     88  64  44 N7G18     29.80S
MCALLEN        PTSUNNY   93  68  43 N7        29.74S HX  97
*WESLACO       PTSUNNY   91  67  46 SE13      29.74S HX  94
FALFURRIAS     CLOUDY    88  70  54 E10       29.76S HX  93
EDINBURG       CLOUDY    92  65  39 CALM      29.74S HX  94
*ZAPATA        PTSUNNY   93  59  32 NE13G20   29.76F HX  92
$$

TXZ213>215-236>238-242>244-246-247-251-254-255-242300-
CMAN STATIONS

STATION/POSITION TIME  TEMP    WIND        PRES    WAVE
                       AIR SEA DIR/SP/G            HT/PER
                 (UTC) (F)     (DEG/KT/KT) (MB)    (FT/S)
SABINE PASS      2200   73 71  200/ 12/ 15 1011.9
SEA RIM ST PARK  2200   73     190/  7/ 10 1012.4
NORTH JETTY/GLS  2200   72 73  190/  8/  9   N/A
EAGLE POINT      2200   76 70  210/ 15/ 17 1010.8
MORGANS POINT    2200   76 70  160/ 12/ 15   N/A
MISSION/ARANSAS  2100   75     140/ 13     1011.0
PORT O`CONNOR    2200          130/  9/ 11   N/A
PORT ARANSAS     2200   72 76  120/  8/ 10 1009.8
MALAQUITE BEACH  2200   72 73  110/ 12/ 14 1008.7
BAFFIN BAY       2200   76 79  130/ 16/ 20 1008.8
$$

GMZ080-GMZ150>470-242300-
OFFSHORE BUOY REPORTS

STATION/POSITION TIME  TEMP    WIND        PRES    WAVE
                       AIR SEA DIR/SP/G            HT/PER
                 (UTC) (F)     (DEG/KT/KT) (MB)    (FT/S)
20 E GALVESTON   2200   71 70  200/  4/  4 1011.7    3/ 5
35 NE PT MANSFLD 2200   73 71  130/  8/  8 1009.5    4/ 7
$$